Tracking 30107 objects as of 25-Jan-2025
HD Live streaming from Space Station
objects crossing your sky now

FENGYUN 1C DEB

Track FENGYUN 1C DEB now!
10-day predictions


NORAD ID: 29818
Int'l Code: 1999-025DL
Perigee: 803.5 km
Apogee: 969.3 km
Inclination: 98.8 °
Period: 102.5 minutes
Semi major axis: 7257 km
RCS: 0.141 m2 (medium)
Launch date: May 10, 1999
Source: People's Republic of China (PRC)
Launch site: Taiyaun Space Center, China (TSC)

Note: This is SATELLITE DEBRIS
Your satellite tracking list
Your tracking list is empty




NASA's NSSDC Master Catalog

Two Line Element Set (TLE):
1 29818U 99025DL  25025.32828005  .00000560  00000-0  35839-3 0  9997
2 29818  98.7669 274.5022 0114285 206.6758 271.3778 14.04205362922984
Source of the keplerian elements: AFSPC